World > North America > United States > Florida > Panama City Beach   Visit Panama City Beach

Panama City Beach, FL Hourly Weather Updates

Feedback E-mail the Weather

Quick Clicks

Panama City Beach, FL Weather Maps

°F °C°F °C
Panama City Beach Weather Map
UTC Time: 7/20/2024, 16:40
Your Time:

Panama City Beach, FL Regional Weather

Expires:202407201700;;994402
ASUS42 KTBW 201611
RWRFL 
FLORIDA REGIONAL WEATHER ROUNDUP
NATIONAL WEATHER SERVICE TAMPA BAY RUSKIN FL
1200 PM EDT SAT JUL 20 2024

NOTE: "FAIR" INDICATES FEW OR NO CLOUDS BELOW 12,000 FEET WITH NO
SIGNIFICANT WEATHER AND/OR OBSTRUCTIONS TO VISIBILITY.


FLZ001>010-012>015-112-114-115-201700-
PANHANDLE FLORIDA
  
CITY           SKY/WX    TMP DP  RH WIND       PRES   REMARKS
PENSACOLA      RAIN      84  75  74 SE8       30.07S                  
PENSACOLA NAS  PTSUNNY   91  77  63 SW12      30.05F HX 104           
MILTON NAS     TSTM      77  75  93 VRB5      30.09                   
DUKE FIELD     TSTM      77  73  88 CALM      30.12R                  
VALPARAISO     TSTM      77  73  88 NE7       30.12R                  
MARY ESTHER    LGT RAIN  77  73  90 NE7       30.08S                  
PANAMA CITY    PTSUNNY   85  78  80 CALM      30.09R HX  96           
TYNDALL AFB    PTSUNNY   88  78  70 S9        30.08R HX 101           
APALACHICOLA   SUNNY     89  79  72 S9        30.08S HX 104           

STATION/POSITION SKY/WX   TEMP    WIND        PRES    WAVE   SWELL
                          AIR SEA DIR/SP/G            HT/PER HT/PER
                          (F)     (DEG/KT/KT) (MB)    (FT/S) (FT/S)
30.1N   87.6W              81 86  200/ 14/ 16 1018.5S
29.2N   88.2W              86     220/ 10/ 14 1018.7R
PANAMA CITY BEAC           82 86  100/  3/  4 1018.5
TOWER C                    86                 1019.2R
28.5N   84.5W              87     190/  8/ 10 1019.2R   1/ 3

$$

SKY/WX - Weather  TMP - Temperature  DP - Dew Point  RH - Humidity
WIND - Wind Direction/Speed PRES - Barometric Pressure VSB - Visibility
WCI - Wind Chill Index E13G22 Wind - East Wind 13 mph/Gusts of 22 mph

Trending Headlines

Trending Entertainment Headlines

Panama City Beach Radar Loop

Use the map search tool if you want to place a location marker on the radar map...

Panama City Beach Quick Facts

National Two Day Weather Forecast


E-mail the Panama City Beach Weather Forecast

Voice your opinion or tell us about page issues...